Voltar ao catálogo

CZ-6A DEB

AtivoSSO
NORAD 54460·DEBRIS·🇨🇳 China

Lançado Nov 11, 2022 de Taiyuan Satellite Launch Center

Loading…

Próximas Passagens (próximas 24 horas)

TLE

AtualizadoSource: Space-Track

Época: Sep 14, 2026, 12:34 UTC

1 54460U 22151GL  26257.52361777  .00001023  00000-0  34092-3 0  9997
2 54460  98.6703 291.1598 0122159 166.8151 193.6276 14.35638033200469

Acompanhe CZ-6A DEB em tempo real com AllMySat

Download on the App Store